sat.trackr.live / text

‹ back to catalog

STARLINK-31276

NORAD 59075 · 2024-041B

PAYLOAD ACTIVE UNKNOWN

§ Identity

Operator
Country
US
Launch date
2024-02-29
Launch site
AFETR
Launch vehicle
Mass (kg)
RCS (m²)

Purposes: comms

External: N2YO · Heavens-Above · Gunter

§ Orbital elements

Epoch: 2026-09-20T03:09:08.705664Z

Period
94.27 min
Inclination
43.0028°
Eccentricity
0.0000985
Mean motion
15.27576392 rev/d
Perigee alt
482.4 km
Apogee alt
483.7 km
Semi-major
6,861.2 km
B*
5.1292e-6
RAAN
292.1918°
Arg perigee
272.3458°
Mean anomaly
87.7281°
Rev number
14,406

§ Raw data

STARLINK-312761 59075U 24041B   26263.13135076 -.00000121  00000+0  51292-5 0  99902 59075  43.0028 292.1918 0000985 272.3458  87.7281 15.27576392144065

JSON: /api/v1/satellites/59075 · /tle

For live sub-satellite position, see the globe view (requires WebGL).

§ Visibility from observer

Set your observer location to see the next 7 days of passes ≥ 10°. The values pass through the URL so the page stays shareable.

No JS? Fill the form by hand. The geolocation button needs JavaScript.